This is the latest recevied weather packets stored in our database for station/object M0TJX-1. If no packets are shown the sender has not sent any weather packets the latest 10 day(s).
| Time | Temp. | Humidity | Pressure | Rain* | Wind** | Luminosity | Snow |
|---|---|---|---|---|---|---|---|
| 1787380831 | 10.56° C | 92% | 1022.7 hPa | 0 mm | - | - | - |
| 1787379931 | 10.56° C | 91% | 1022.4 hPa | 0 mm | - | - | - |
| 1787379031 | 10° C | 92% | 1022.3 hPa | 0 mm | - | - | - |
| 1787378131 | 10° C | 92% | 1022 hPa | 0 mm | - | - | - |
| 1787376331 | 10° C | 93% | 1021.8 hPa | 0 mm | - | - | - |
| 1787375431 | 9.44° C | 92% | 1021.8 hPa | 0 mm | - | - | - |
| 1787374531 | 9.44° C | 91% | 1021.6 hPa | 0 mm | - | - | - |
| 1787371831 | 9.44° C | 89% | 1021.3 hPa | 0 mm | - | - | - |
| 1787370931 | 10° C | 89% | 1021.1 hPa | 0 mm | - | - | - |
| 1787370031 | 10° C | 89% | 1021 hPa | 0 mm | - | - | - |
| 1787369131 | 10° C | 90% | 1020.9 hPa | 0 mm | - | - | - |
| 1787368231 | 10.56° C | 89% | 1020.8 hPa | 0 mm | - | - | - |
| 1787367331 | 10.56° C | 88% | 1020.8 hPa | 0 mm | - | - | - |
| 1787366431 | 10.56° C | 87% | 1020.6 hPa | 0 mm | - | - | - |
| 1787365531 | 10.56° C | 85% | 1020.4 hPa | 0 mm | - | - | - |
| 1787363731 | 11.11° C | 83% | 1020.3 hPa | 0 mm | - | - | - |
| 1787361931 | 11.67° C | 81% | 1020.2 hPa | 0 mm | - | - | - |
| 1787361031 | 12.22° C | 78% | 1020.2 hPa | 0 mm | - | - | - |
| 1787360131 | 12.78° C | 77% | 1020.1 hPa | 0 mm | - | - | - |
| 1787358331 | 13.33° C | 75% | 1020.2 hPa | 0 mm | - | - | - |
| 1787357431 | 13.33° C | 75% | 1020.1 hPa | 0 mm | - | - | - |
* Rain latest hour (hover to see other rain measurements)
** Current wind speed in m/s (hover to see current wind gust speed)